Location: Central Coast
(33.3208°S, 151.2336°E)
Time: 17:19:30
(UTC+11:00)

OTV 5 (USA 277) - Pass Details

Date: 16 October 2017
Orbit: 404 x 417 km, 43.0° (Epoch: 07 September)

Event Time Altitude Azimuth Distance (km) Brightness Sun altitude
Exits shadow 04:16:01 32° 78° (ENE) 724 ? -23.8°
Drops below altitude 10° 04:18:15 10° 107° (ESE) 1,475 ? -23.4°
Sets 04:20:25 0° 114° (ESE) 2,341 ? -23.0°
